Regional Weather Roundup
Issued by NWS

Home | Current Version | Previous Version | Graphics & Text | Print | Product List | Glossary On
Versions: 1 2 3 4 5 6 7 8 9 10 11 12 13 14 15 16 17 18 19 20 21 22 23 24 25 26 27 28 29 30 31 32 33 34 35 36 37 38 39 40 41 42 43 44 45 46 47 48 49 50
000
ASUS43 KLMK 051210
RWRKY
KENTUCKY REGIONAL WEATHER ROUNDUP
NATIONAL WEATHER SERVICE LOUISVILLE KY
800 AM EDT SAT SEP 05 2015

NOTE "FAIR" INDICATES FEW OR NO CLOUDS BELOW 12,000 FEET
WITH NO SIGNIFICANT WEATHER AND/OR OBSTRUCTIONS TO VISIBILITY.

KYZ001>023-026-027-061>063-070>075-051300-
WESTERN AND SOUTH CENTRAL KENTUCKY

CITY           SKY/WX    TMP DP  RH WIND       PRES   REMARKS
PADUCAH        PTCLDY    67  65  93 CALM      30.07R FOG
HENDERSON      CLEAR     66  63  88 CALM      30.09R
OWENSBORO      CLEAR     70  66  86 CALM      30.10R
HOPKINSVILLE   CLEAR     69  65  88 CALM      30.09R
BOWLING GREEN  PTCLDY    70  66  87 CALM      30.10R FOG
GLASGOW        CLEAR     67  67 100 CALM      30.11R FOG
$$

KYZ024-025-028>034-038-045-046-053-051300-
NORTH CENTRAL KENTUCKY

CITY           SKY/WX    TMP DP  RH WIND       PRES   REMARKS
LOUISVILLE/SDF PTCLDY    73  64  73 E3        30.11R
LOUISVILLE/LOU CLEAR     71  65  81 CALM      30.13R
FORT KNOX      PTCLDY    67  63  87 CALM      30.11R
$$

KYZ035>037-039>044-047>052-055>060-089>105-051300-
NORTHEAST KENTUCKY

CITY           SKY/WX    TMP DP  RH WIND       PRES   REMARKS
LEXINGTON      CLEAR     69  63  81 E5        30.15R
COVINGTON      PTCLDY    66  64  93 CALM      30.15R FOG
FRANKFORT      CLEAR     68  64  87 E3        30.14R
$$

KYZ054-064>069-076>088-106>120-051300-
SOUTHEAST KENTUCKY

CITY           SKY/WX    TMP DP  RH WIND       PRES   REMARKS
JACKSON        CLEAR     69  66  90 CALM      30.16R FOG
LONDON         CLEAR     69  64  84 NE3       30.15R HAZE
SOMERSET       CLEAR     64  64 100 CALM      30.14S FOG
MIDDLESBORO    FOG       64  64 100 CALM      30.17R VSB<1/4
MONTICELLO     SUNNY     65  65 100 CALM      30.16R FOG
$$



USA.gov is the U.S. government's official web portal to all federal, state and local government web resources and services.